Total_Precipitation_Accumulation
1.76 1.79 1.78 1.72 1.74 1.81 1.81 1.70 1.67 1.59 1.46 1.43 1.34 1.26 1.24 1.25 1.31 1.43 1.48 1.52 1.58 1.66 1.74 1.73 1.74 1.74 1.82 1.83 1.86 1.93 2.09 2.19 2.18 1.89 1.70 1.63 1.57 1.46 1.46 1.41 1.36 1.29 1.14
1.53 1.47 1.48 1.51 1.51 1.54 1.51 1.39 1.35 1.39 1.30 1.25 1.15 1.09 1.07 1.08 1.14 1.20 1.23 1.26 1.38 1.42 1.44 1.48 1.48 1.52 1.57 1.57 1.61 1.63 1.73 1.88 1.95 1.93 1.81 1.74 1.66 1.55 1.56 1.56 1.29 1.10 1.08
1.45 1.41 1.37 1.40 1.44 1.43 1.39 1.35 1.29 1.30 1.27 1.17 1.04 1.00 0.99 0.97 0.99 1.04 1.09 1.09 1.13 1.20 1.23 1.32 1.35 1.39 1.36 1.31 1.36 1.45 1.48 1.55 1.76 1.79 1.69 1.63 1.54 1.44 1.57 1.48 1.35 1.42 1.10
1.34 1.36 1.37 1.38 1.41 1.39 1.40 1.44 1.37 1.26 1.19 1.12 1.06 0.98 0.95 0.91 0.92 0.94 0.92 0.96 1.01 1.07 1.10 1.15 1.15 1.18 1.21 1.25 1.27 1.41 1.47 1.59 1.67 1.68 1.64 1.59 1.51 1.43 1.56 1.55 1.51 1.47 1.24
1.24 1.27 1.30 1.29 1.29 1.25 1.30 1.32 1.33 1.30 1.19 1.14 1.08 1.00 0.87 0.79 0.76 0.80 0.82 0.84 0.95 0.98 1.00 0.99 0.98 1.03 1.12 1.13 1.09 1.21 1.38 1.56 1.56 1.56 1.55 1.58 1.51 1.54 1.51 1.46 1.47 1.50 1.38
1.33 1.30 1.25 1.26 1.23 1.21 1.21 1.24 1.19 1.15 1.15 1.11 1.02 0.93 0.82 0.68 0.71 0.71 0.72 0.79 0.89 0.94 0.93 0.92 0.89 0.87 0.91 0.97 0.97 1.04 1.21 1.35 1.44 1.52 1.52 1.55 1.55 1.63 1.64 1.62 1.60 1.63 1.60
1.19 1.16 1.11 1.10 1.09 1.11 1.08 1.11 1.16 1.21 1.20 1.11 1.00 0.95 0.91 0.79 0.62 0.54 0.58 0.70 0.86 0.87 0.87 0.92 0.83 0.76 0.86 0.90 0.92 0.92 0.95 1.00 1.14 1.36 1.53 1.58 1.69 1.83 1.91 1.83 1.75 1.71 1.70
1.07 1.05 0.99 0.95 0.96 1.04 1.02 1.04 1.12 1.15 1.14 1.14 1.11 1.13 1.10 0.87 0.63 0.47 0.52 0.69 0.81 0.75 0.75 0.84 0.91 0.93 0.87 0.88 0.89 0.92 0.95 0.95 0.98 1.07 1.34 1.45 1.48 1.67 1.88 1.92 1.88 1.79 1.76
1.02 1.01 0.91 0.86 0.93 0.97 0.94 0.96 1.05 1.05 1.04 1.07 1.08 1.14 1.12 0.96 0.73 0.57 0.58 0.70 0.78 0.76 0.75 0.73 0.75 0.83 0.82 0.87 0.95 1.10 1.15 1.13 0.92 0.96 1.10 1.19 1.25 1.40 1.54 1.73 1.93 2.02 1.95
1.00 0.98 0.91 0.91 0.94 0.98 0.99 0.98 0.93 0.95 0.93 0.91 0.96 1.05 1.01 0.92 0.72 0.56 0.57 0.61 0.72 0.84 0.92 0.91 0.86 0.80 0.79 0.86 1.01 1.19 1.26 1.23 1.21 1.34 1.45 1.44 1.43 1.49 1.44 1.62 1.91 2.04 2.00
0.96 0.93 0.97 0.99 0.96 0.95 0.98 0.95 0.89 0.82 0.86 0.89 0.88 0.95 0.99 0.82 0.65 0.54 0.58 0.62 0.69 0.81 0.91 0.98 0.94 0.88 0.85 0.86 0.93 1.09 1.19 1.19 1.42 1.78 1.81 1.67 1.58 1.54 1.44 1.47 1.70 1.87 1.97
1.03 1.03 1.00 0.95 0.84 0.83 0.96 0.93 0.86 0.86 0.90 0.96 0.94 0.95 0.90 0.74 0.57 0.50 0.56 0.61 0.63 0.74 0.88 0.87 0.88 0.88 0.86 0.90 0.92 1.03 1.14 1.31 1.59 1.94 1.91 1.71 1.54 1.44 1.38 1.32 1.42 1.58 1.76
1.14 1.11 1.05 0.95 0.87 0.87 0.95 0.94 0.87 0.88 0.86 0.83 0.81 0.85 0.80 0.68 0.60 0.53 0.54 0.56 0.56 0.61 0.72 0.77 0.77 0.76 0.81 0.94 1.02 1.09 1.23 1.49 1.72 1.82 1.72 1.52 1.40 1.36 1.33 1.30 1.30 1.44 1.53
1.22 1.14 1.10 1.03 0.92 0.87 0.87 0.83 0.81 0.80 0.82 0.80 0.75 0.73 0.68 0.63 0.56 0.50 0.50 0.52 0.51 0.53 0.61 0.72 0.81 0.86 0.94 1.09 1.25 1.35 1.39 1.48 1.55 1.60 1.49 1.36 1.27 1.28 1.29 1.18 1.22 1.33 1.46
1.20 1.04 0.98 0.92 0.86 0.87 0.82 0.74 0.72 0.68 0.68 0.71 0.67 0.60 0.56 0.52 0.46 0.49 0.51 0.52 0.51 0.53 0.58 0.71 0.93 1.06 1.15 1.19 1.24 1.33 1.34 1.30 1.30 1.28 1.25 1.23 1.24 1.28 1.23 1.12 1.16 1.22 1.33
1.05 0.93 0.84 0.77 0.76 0.71 0.70 0.69 0.70 0.64 0.57 0.57 0.57 0.50 0.43 0.43 0.44 0.43 0.44 0.46 0.52 0.58 0.61 0.78 0.96 1.06 1.13 1.18 1.21 1.22 1.19 1.16 1.12 1.11 1.12 1.08 1.09 1.13 1.17 1.15 1.17 1.22 1.29
0.96 0.88 0.78 0.76 0.75 0.72 0.71 0.72 0.75 0.70 0.59 0.55 0.53 0.48 0.43 0.40 0.38 0.37 0.38 0.37 0.42 0.53 0.63 0.83 0.95 0.99 1.08 1.18 1.16 1.13 1.12 1.06 1.02 0.99 0.99 0.97 0.92 0.97 1.06 1.13 1.19 1.26 1.30
0.83 0.79 0.75 0.74 0.72 0.74 0.77 0.75 0.72 0.76 0.74 0.62 0.50 0.46 0.41 0.41 0.39 0.38 0.38 0.38 0.46 0.54 0.70 0.89 0.94 0.93 0.97 1.02 1.03 1.06 1.07 1.01 0.97 0.97 0.98 0.96 0.94 0.93 1.00 1.07 1.12 1.16 1.19
0.76 0.75 0.75 0.74 0.72 0.69 0.72 0.73 0.71 0.73 0.76 0.69 0.58 0.50 0.48 0.49 0.50 0.51 0.49 0.48 0.55 0.61 0.67 0.72 0.81 0.87 0.90 0.91 0.92 0.92 0.97 0.99 0.94 0.93 0.94 0.93 0.92 0.92 0.94 0.95 0.95 0.91 0.94
0.64 0.66 0.70 0.71 0.71 0.67 0.67 0.71 0.72 0.73 0.74 0.70 0.60 0.54 0.56 0.61 0.63 0.62 0.58 0.55 0.57 0.60 0.67 0.74 0.78 0.79 0.82 0.84 0.84 0.81 0.81 0.85 0.87 0.84 0.82 0.83 0.84 0.84 0.87 0.86 0.85 0.85 0.85
0.55 0.54 0.55 0.53 0.54 0.54 0.55 0.58 0.62 0.68 0.68 0.63 0.54 0.53 0.60 0.61 0.68 0.67 0.66 0.64 0.64 0.65 0.68 0.75 0.76 0.74 0.71 0.74 0.81 0.81 0.80 0.79 0.78 0.78 0.76 0.72 0.70 0.69 0.67 0.66 0.65 0.67 0.73
0.50 0.45 0.40 0.39 0.39 0.44 0.48 0.50 0.55 0.57 0.59 0.55 0.49 0.47 0.53 0.53 0.57 0.59 0.61 0.62 0.62 0.62 0.66 0.73 0.75 0.70 0.68 0.70 0.79 0.83 0.80 0.76 0.73 0.74 0.72 0.67 0.62 0.60 0.61 0.61 0.61 0.64 0.68
0.48 0.44 0.38 0.34 0.35 0.42 0.48 0.51 0.55 0.57 0.58 0.55 0.49 0.46 0.48 0.53 0.54 0.59 0.61 0.58 0.55 0.55 0.56 0.60 0.64 0.65 0.65 0.66 0.68 0.67 0.69 0.69 0.66 0.65 0.71 0.70 0.66 0.62 0.61 0.59 0.58 0.60 0.62
0.46 0.45 0.44 0.40 0.42 0.49 0.50 0.47 0.49 0.51 0.53 0.54 0.48 0.45 0.46 0.49 0.52 0.56 0.60 0.61 0.60 0.59 0.56 0.57 0.60 0.59 0.59 0.61 0.60 0.55 0.54 0.58 0.59 0.61 0.65 0.65 0.61 0.61 0.63 0.61 0.59 0.60 0.62
0.40 0.42 0.44 0.44 0.45 0.48 0.48 0.48 0.49 0.51 0.54 0.58 0.54 0.49 0.48 0.46 0.45 0.46 0.51 0.56 0.57 0.55 0.52 0.48 0.47 0.46 0.47 0.47 0.46 0.46 0.51 0.52 0.52 0.55 0.59 0.60 0.54 0.54 0.58 0.55 0.54 0.56 0.59
0.39 0.43 0.45 0.48 0.52 0.52 0.52 0.54 0.56 0.55 0.56 0.53 0.51 0.53 0.53 0.51 0.48 0.47 0.48 0.49 0.48 0.46 0.45 0.46 0.43 0.40 0.37 0.34 0.36 0.41 0.41 0.36 0.35 0.40 0.45 0.52 0.50 0.50 0.54 0.55 0.50 0.53 0.56